[[{"header":{"parameterUnit":"m.s-1","parameterCategory":1,"la1":30.2991,"la2":30.254,"lo1":-89.0895,"lo2":-89.0444,"dy":0.0017,"dx":0.0017,"nx":28,"ny":28,"refTime":"2023-07-20T21:00:00:Z","depth":0,"parameterNumber":2,"parameterNumberName":"U-component_of_WINDS"},"data":[0,0,0,0,0,0,0,0,0,0,0,0,0,0,0,0,0,0,0,0,0,0,0,0,0,0,0,0,0,0,0,0,0,0,0,0,0,0,0,0,0,0,0,0,0,0,0,0,0,0,0,0,0,0,0,0,0,0,4.7576,4.7577,0,4.7742,4.7744,4.7746,4.7709,4.7706,4.7703,4.77,4.7874,4.7881,4.7888,0,0,0,0,0,0,0,0,0,0,0,0,0,4.7228,4.7234,4.7575,4.7577,4.758,4.7742,4.7744,4.7746,4.7709,4.7706,4.7702,4.7698,4.7871,4.788,4.7889,0,0,0,0,0,0,0,0,0,0,0,0,0,4.7385,4.7236,4.7575,4.7581,4.7583,4.7741,4.7744,4.7747,4.771,4.7706,4.7701,4.7696,4.7868,4.7879,4.789,4.8055,0,0,4.7925,4.793,0,0,0,0,0,0,0,0,4.7376,4.7398,4.7578,4.758,4.7583,4.77,4.7685,4.785,4.7711,4.7662,4.77,4.7694,4.782,4.7835,4.7877,4.8063,4.807,4.7926,4.7933,4.7938,4.7941,0,0,0,0,0,0,0,4.7365,4.739,4.7641,4.758,4.7584,4.7576,4.7593,4.7716,4.7765,4.7666,4.7664,4.7684,4.782,4.7866,4.788,4.8073,4.7926,4.7936,4.7943,4.7947,4.8403,4.8408,0,0,0,0,0,0,4.7352,4.7382,4.7636,4.7646,4.7466,4.7586,4.7605,4.7667,4.7764,4.7774,4.7688,4.7681,4.7849,4.7867,4.7886,4.8086,4.7938,4.7948,4.7955,4.8398,4.8404,4.841,0,0,0,0,0,0,4.7344,4.7375,4.7629,4.7514,4.7545,4.7597,4.7667,4.7673,4.7718,4.778,4.7789,4.7725,4.7846,4.787,4.8013,4.8091,4.7953,4.7964,4.8392,4.84,4.8407,4.8485,0,0,0,0,0,0,4.7334,4.7372,4.7435,4.7515,4.7552,4.7753,4.7672,4.768,4.7737,4.7731,4.7817,4.7827,4.7844,4.7996,4.8024,4.8104,4.7973,4.8385,4.8395,4.8405,4.8476,4.8495,4.8511,0,0,0,0,0,4.7322,4.7451,4.7438,4.7469,4.7631,4.7757,4.7778,4.7794,4.7744,4.7808,4.7847,4.7824,4.8078,4.8011,4.8042,4.8127,4.838,4.8392,4.8404,4.8468,4.8491,4.8511,0,0,0,0,0,0,4.7379,4.7461,4.7448,4.7606,4.7675,4.7751,4.7831,4.7818,4.7903,4.7893,4.791,4.793,4.8075,4.8115,4.804,4.8291,4.8222,4.8241,4.826,4.8282,4.83,4.8287,4.7982,0,0,0,0,0,4.741,4.7505,4.7572,4.7705,4.774,4.778,4.7836,4.7842,4.7914,4.7943,4.7993,4.8065,4.8161,4.8224,4.8315,4.8481,4.85,4.8555,4.8572,4.8586,4.8603,4.8694,4.8719,4.8449,4.8449,4.8449,0,0,4.7475,4.7532,4.7591,4.7718,4.7772,4.7871,4.7805,4.7912,4.7986,4.796,4.8097,4.8137,4.8218,4.8373,4.8444,4.8411,4.8681,4.8602,4.8612,4.8621,4.8709,4.8734,4.8757,4.8457,4.8456,4.8455,0,0,4.7644,4.7696,4.7813,4.7868,4.795,4.7975,4.8003,4.8082,4.8106,4.8244,4.8227,4.8315,4.848,4.8538,4.859,4.8781,4.8763,4.881,4.8902,4.8991,4.9012,4.9031,4.91,4.9124,4.8826,4.8826,4.8826,0,4.7715,4.7862,4.7875,4.7984,4.8041,4.802,4.8139,4.8192,4.8301,4.8341,4.8302,4.8508,4.8561,4.8729,4.8776,4.8818,4.8851,4.8801,4.9008,4.9027,4.9045,4.911,4.9136,4.8831,4.8831,4.883,4.883,0,4.7946,4.8048,4.8133,4.8237,4.8303,4.8416,4.8447,4.8513,4.8513,4.8543,4.8684,4.8747,4.8851,4.8891,4.8893,4.9061,4.9037,4.9003,4.8934,4.9076,4.9137,4.9163,4.8839,4.8837,4.8835,4.8834,0,0,4.8156,4.8265,4.8296,4.8343,4.8431,4.8511,4.8624,4.8725,4.8781,4.8856,4.8952,4.9091,4.906,4.9118,4.9126,4.9204,4.9352,4.916,4.9163,4.9194,4.9541,4.9566,4.9595,4.934,4.9345,4.9349,4.9534,0,4.8334,4.8531,4.8546,4.8725,4.882,4.8801,4.89,4.8965,4.8996,4.9082,4.9117,4.9216,4.9166,4.9202,4.9278,4.9318,4.9422,4.9304,4.943,4.9435,4.9411,4.9628,4.9655,4.9827,4.9558,4.9563,4.9566,0,4.8568,4.8649,4.8837,4.8912,4.8952,4.904,4.9134,4.9216,4.929,4.9307,4.9372,4.9369,4.9486,4.9412,4.9573,4.9493,4.9545,4.9573,4.958,4.9593,4.9509,4.9647,4.9882,4.9908,4.9604,4.9601,4.9598,0,4.8703,4.8859,4.8992,4.9033,4.9123,4.9186,4.9227,4.9296,4.9355,4.9437,4.9476,4.9571,4.9623,4.9697,4.972,4.9664,4.9881,4.9809,4.99,4.9899,4.9947,4.9944,5.0194,4.998,4.9979,4.9979,4.9978,0,4.89,4.9016,4.9054,4.9136,4.9265,4.9281,4.9409,4.9446,4.9508,4.9597,4.9587,4.9672,4.9697,4.9786,4.9805,4.9936,4.996,4.9977,4.9981,4.9979,4.9977,5.0014,5.0003,4.9986,4.9984,4.9983,4.9982,0,4.9074,4.9104,4.9247,4.9321,4.9342,4.9434,4.9498,4.9577,4.9606,4.9719,4.9746,4.9792,4.9897,4.9927,5.0052,5.0065,5.0219,5.0212,5.0194,5.0194,5.0283,5.0275,5.0567,5.0607,5.0366,5.0368,5.037,0,4.9198,4.9287,4.937,4.9428,4.9471,4.9566,4.9626,4.9645,4.9708,4.9799,4.9867,4.997,5.0053,5.022,5.0266,5.0362,5.0357,5.0453,5.0371,5.0366,5.0359,5.0354,5.0363,5.0468,5.0471,5.0473,5.0475,0,4.9416,4.9426,4.9513,4.9605,4.9677,4.9751,4.9821,4.987,4.9899,4.9971,5.0076,5.0141,5.0268,5.0371,5.0468,5.0511,5.0499,5.05,5.0526,5.0525,5.0511,5.052,5.0236,5.0493,5.0491,5.049,5.0489,5.0488,4.957,4.9647,4.9717,4.9814,4.9869,4.9935,5.0013,5.0051,5.0139,5.0244,5.0249,5.0364,5.0436,5.0565,5.0613,5.0704,5.0676,5.0714,5.0724,5.0733,5.074,5.0496,5.0722,5.0721,5.0721,5.0721,5.072,0,4.9787,4.9831,4.992,5.0018,5.0095,5.0074,5.0152,5.0217,5.0318,5.0386,5.0467,5.0589,5.0688,5.074,5.0839,5.0901,5.0898,5.0927,5.0923,5.0933,5.076,5.0727,5.0928,5.0928,5.0928,5.0928,5.0928,5.0928,4.9909,5.004,5.0058,5.0216,5.0259,5.0371,5.0417,5.0478,5.0532,5.0667,5.0749,5.0782,5.0844,5.0947,5.1037,5.105,5.1087,5.1119,5.1129,5.0966,5.0945,5.0925,5.0895,5.1127,5.1127,5.1295,5.1297,5.1298]},{"header":{"parameterUnit":"m.s-1","parameterCategory":1,"la1":30.2991,"la2":30.254,"lo1":-89.0895,"lo2":-89.0444,"dy":0.0017,"dx":0.0017,"nx":28,"ny":28,"refTime":"2023-07-20T21:00:00:Z","depth":0,"parameterNumber":3,"parameterNumberName":"V-component_of_WINDS"},"data":[0,0,0,0,0,0,0,0,0,0,0,0,0,0,0,0,0,0,0,0,0,0,0,0,0,0,0,0,0,0,0,0,0,0,0,0,0,0,0,0,0,0,0,0,0,0,0,0,0,0,0,0,0,0,0,0,0,0,-0.7862,-0.7862,0,-0.7892,-0.7892,-0.7892,-0.7886,-0.7885,-0.7885,-0.7884,-0.7915,-0.7916,-0.7917,0,0,0,0,0,0,0,0,0,0,0,0,0,-0.78,-0.7801,-0.7862,-0.7862,-0.7863,-0.7892,-0.7892,-0.7892,-0.7886,-0.7885,-0.7885,-0.7884,-0.7914,-0.7916,-0.7917,0,0,0,0,0,0,0,0,0,0,0,0,0,-0.7828,-0.7802,-0.7862,-0.7863,-0.7863,-0.7891,-0.7892,-0.7892,-0.7886,-0.7885,-0.7884,-0.7884,-0.7914,-0.7916,-0.7918,-0.7947,0,0,-0.7924,-0.7925,0,0,0,0,0,0,0,0,-0.7827,-0.783,-0.7862,-0.7863,-0.7863,-0.7884,-0.7881,-0.7911,-0.7886,-0.7877,-0.7884,-0.7883,-0.7905,-0.7908,-0.7915,-0.7948,-0.7949,-0.7924,-0.7925,-0.7926,-0.7927,0,0,0,0,0,0,0,-0.7825,-0.7829,-0.7874,-0.7863,-0.7863,-0.7862,-0.7865,-0.7887,-0.7896,-0.7878,-0.7878,-0.7881,-0.7905,-0.7913,-0.7916,-0.795,-0.7924,-0.7926,-0.7927,-0.7928,-0.8008,-0.8009,0,0,0,0,0,0,-0.7822,-0.7828,-0.7873,-0.7875,-0.7843,-0.7864,-0.7867,-0.7878,-0.7895,-0.7897,-0.7882,-0.7881,-0.791,-0.7914,-0.7917,-0.7952,-0.7926,-0.7928,-0.7929,-0.8007,-0.8009,-0.801,0,0,0,0,0,0,-0.7821,-0.7826,-0.7871,-0.7851,-0.7857,-0.7866,-0.7878,-0.7879,-0.7887,-0.7898,-0.79,-0.7889,-0.791,-0.7914,-0.7939,-0.7953,-0.7929,-0.7931,-0.8006,-0.8008,-0.8009,-0.8023,0,0,0,0,0,0,-0.7819,-0.7826,-0.7837,-0.7851,-0.7858,-0.7893,-0.7879,-0.7881,-0.7891,-0.789,-0.7905,-0.7907,-0.7909,-0.7936,-0.7941,-0.7955,-0.7932,-0.8005,-0.8007,-0.8009,-0.8021,-0.8024,-0.8027,0,0,0,0,0,-0.7817,-0.7839,-0.7837,-0.7843,-0.7871,-0.7894,-0.7898,-0.7901,-0.7892,-0.7903,-0.791,-0.7906,-0.7951,-0.7939,-0.7945,-0.7959,-0.8004,-0.8006,-0.8009,-0.802,-0.8024,-0.8027,0,0,0,0,0,0,-0.7826,-0.7841,-0.7839,-0.7867,-0.7879,-0.7893,-0.7907,-0.7905,-0.792,-0.7918,-0.7921,-0.7925,-0.795,-0.7958,-0.7944,-0.7989,-0.7976,-0.798,-0.7983,-0.7987,-0.799,-0.7988,-0.7934,0,0,0,0,0,-0.7831,-0.7848,-0.7861,-0.7884,-0.789,-0.7898,-0.7907,-0.7909,-0.7922,-0.7927,-0.7936,-0.7949,-0.7966,-0.7977,-0.7993,-0.8022,-0.8026,-0.8035,-0.8038,-0.8041,-0.8044,-0.806,-0.8064,-0.8017,-0.8017,-0.8017,0,0,-0.7842,-0.7853,-0.7863,-0.7886,-0.7896,-0.7913,-0.7902,-0.7921,-0.7934,-0.793,-0.7954,-0.7961,-0.7976,-0.8003,-0.8016,-0.801,-0.8058,-0.8044,-0.8046,-0.8047,-0.8063,-0.8067,-0.8071,-0.8018,-0.8018,-0.8018,0,0,-0.7871,-0.788,-0.7901,-0.7911,-0.7926,-0.7931,-0.7936,-0.795,-0.7955,-0.7979,-0.7977,-0.7993,-0.8022,-0.8032,-0.8042,-0.8075,-0.8072,-0.8081,-0.8097,-0.8113,-0.8116,-0.812,-0.8132,-0.8136,-0.8084,-0.8084,-0.8084,0,-0.7882,-0.7909,-0.7912,-0.7931,-0.7941,-0.7939,-0.796,-0.7969,-0.7989,-0.7996,-0.7989,-0.8026,-0.8036,-0.8066,-0.8074,-0.8082,-0.8088,-0.8079,-0.8116,-0.8119,-0.8122,-0.8134,-0.8138,-0.8084,-0.8084,-0.8084,-0.8084,0,-0.7922,-0.7941,-0.7955,-0.7974,-0.7987,-0.8007,-0.8013,-0.8025,-0.8025,-0.8031,-0.8057,-0.8068,-0.8087,-0.8094,-0.8095,-0.8125,-0.8121,-0.8115,-0.8102,-0.8128,-0.8139,-0.8143,-0.8086,-0.8085,-0.8085,-0.8085,0,0,-0.7957,-0.7978,-0.7983,-0.7992,-0.8009,-0.8023,-0.8043,-0.8062,-0.8072,-0.8086,-0.8103,-0.8128,-0.8123,-0.8134,-0.8136,-0.815,-0.8176,-0.8142,-0.8143,-0.8148,-0.821,-0.8214,-0.8219,-0.8174,-0.8175,-0.8176,-0.8209,0,-0.7987,-0.8022,-0.8026,-0.8058,-0.8075,-0.8073,-0.8091,-0.8103,-0.8109,-0.8125,-0.8132,-0.815,-0.8142,-0.8148,-0.8162,-0.817,-0.8188,-0.8168,-0.819,-0.8191,-0.8186,-0.8225,-0.8229,-0.8259,-0.8213,-0.8214,-0.8214,0,-0.8027,-0.8042,-0.8075,-0.809,-0.8097,-0.8113,-0.8131,-0.8146,-0.816,-0.8164,-0.8176,-0.8176,-0.8197,-0.8185,-0.8214,-0.82,-0.821,-0.8215,-0.8217,-0.8218,-0.8204,-0.8228,-0.8269,-0.8274,-0.8221,-0.8221,-0.822,0,-0.8048,-0.8077,-0.8101,-0.8109,-0.8127,-0.8138,-0.8146,-0.8159,-0.817,-0.8186,-0.8193,-0.8211,-0.8221,-0.8235,-0.824,-0.823,-0.8269,-0.8257,-0.8273,-0.8273,-0.8281,-0.828,-0.8324,-0.8288,-0.8288,-0.8288,-0.8287,0,-0.8081,-0.8102,-0.8111,-0.8126,-0.8149,-0.8153,-0.8176,-0.8184,-0.8196,-0.8212,-0.8212,-0.8227,-0.8234,-0.825,-0.8255,-0.8279,-0.8283,-0.8287,-0.8287,-0.8286,-0.8286,-0.8293,-0.8291,-0.8289,-0.8289,-0.8288,-0.8288,0,-0.8109,-0.8116,-0.8142,-0.8157,-0.8161,-0.8178,-0.8191,-0.8205,-0.8212,-0.8232,-0.8238,-0.8248,-0.8267,-0.8274,-0.8298,-0.8301,-0.8329,-0.8328,-0.8324,-0.8324,-0.8339,-0.8338,-0.8389,-0.8396,-0.8355,-0.8355,-0.8356,0,-0.813,-0.8146,-0.8163,-0.8173,-0.8182,-0.8199,-0.8211,-0.8216,-0.8228,-0.8246,-0.8258,-0.8278,-0.8293,-0.8325,-0.8334,-0.8353,-0.8352,-0.8369,-0.8355,-0.8354,-0.8353,-0.8351,-0.8353,-0.8371,-0.8372,-0.8372,-0.8373,0,-0.8166,-0.8168,-0.8185,-0.8202,-0.8216,-0.823,-0.8244,-0.8253,-0.826,-0.8274,-0.8294,-0.8306,-0.8331,-0.835,-0.8369,-0.8378,-0.8377,-0.8377,-0.8382,-0.8381,-0.8378,-0.838,-0.8331,-0.8376,-0.8375,-0.8375,-0.8375,-0.8375,-0.819,-0.8205,-0.8219,-0.8237,-0.8248,-0.8261,-0.8275,-0.8284,-0.83,-0.8321,-0.8323,-0.8345,-0.8359,-0.8384,-0.8394,-0.8411,-0.8407,-0.8413,-0.8415,-0.8417,-0.8418,-0.8375,-0.8415,-0.8415,-0.8415,-0.8415,-0.8415,0,-0.8226,-0.8235,-0.8252,-0.8272,-0.8286,-0.8284,-0.8299,-0.8312,-0.8331,-0.8344,-0.836,-0.8383,-0.8402,-0.8414,-0.8433,-0.8445,-0.8445,-0.845,-0.8449,-0.8451,-0.8421,-0.8415,-0.8449,-0.8449,-0.8449,-0.8449,-0.8449,-0.8449,-0.8246,-0.827,-0.8275,-0.8304,-0.8314,-0.8335,-0.8344,-0.8356,-0.8367,-0.8393,-0.8409,-0.8416,-0.8429,-0.8449,-0.8467,-0.847,-0.8477,-0.8482,-0.8485,-0.8456,-0.8453,-0.8449,-0.8444,-0.8484,-0.8484,-0.8513,-0.8513,-0.8513]}]]